Palacios, TX

8:01 PM CDT on April 26, 2018 (GMT -0500)
Palacios Municipal

Weather History for KPSX - September, 2011

Change the Weather History Date:

Monday, September 26, 2011

  Actual Average Record
Temperature  
Mean Temperature 85 °F -  
Max Temperature 89 °F 85 °F 93 °F (1953)
Min Temperature 81 °F 66 °F 51 °F (2000)
Cooling Degree Days 20    
Growing Degree Days 35 (Base 50)    
Moisture  
Dew Point 77 °F    
Average Humidity 79    
Maximum Humidity 90    
Minimum Humidity 62    
Precipitation  
Precipitation 0.00 in - - ()
Sea Level Pressure  
Sea Level Pressure 29.82 in    
Wind  
Wind Speed 14 mph (South)    
Max Wind Speed 17 mph    
Max Gust Speed 25 mph    
Visibility 10 miles    
Events      
Averages and records for this station are not official NWS values.
T = Trace of Precipitation, MM = Missing Value Source: NWS Daily Summary

Daily Weather History Graph

Daily Weather History Graph

Search for Another Location

Airport or City:

Astronomy

Sep. 26, 2011 Rise Set
Actual Time 7:15 AM CDT 7:16 PM CDT
Civil Twilight 6:51 AM CDT 7:40 PM CDT
Nautical Twilight 6:24 AM CDT 8:07 PM CDT
Astronomical Twilight 5:56 AM CDT 8:35 PM CDT
Moon 6:17 AM CDT (9/26) 6:35 PM CDT (9/26)
Length of Visible Light 12h 48m
Length of Day
12h 01m
Waning Crescent, 1% of the Moon is Illuminated
Sep 26
Waning Crescent
Sep 27
New
Oct 3
First Quarter
Oct 11
Full
Oct 19
Last Quarter

Hourly Weather History & Observations

Time (CDT) Temp. Heat Index Dew Point Humidity Pressure Visibility Wind Dir Wind Speed Gust Speed Precip Events Conditions
12:53 AM 82.0 °F 91.6 °F 79.0 °F 90% 29.76 in 10.0 mi South 16.1 mph 24.2 mph N/A   Unknown
1:53 AM 82.0 °F 91.6 °F 79.0 °F 90% 29.76 in 10.0 mi South 13.8 mph 23.0 mph N/A   Clear
2:26 AM 82.4 °F 92.4 °F 78.8 °F 89% 29.77 in 10.0 mi South 15.0 mph 23.0 mph N/A   Mostly Cloudy
2:34 AM 82.4 °F 92.4 °F 78.8 °F 89% 29.76 in 10.0 mi South 16.1 mph 25.3 mph N/A   Scattered Clouds
2:53 AM 82.9 °F 93.8 °F 79.0 °F 88% 29.76 in 10.0 mi South 17.3 mph 24.2 mph N/A   Partly Cloudy
3:53 AM 82.9 °F 93.8 °F 79.0 °F 88% 29.76 in 10.0 mi South 15.0 mph 23.0 mph N/A   Scattered Clouds
4:53 AM 82.0 °F 91.0 °F 78.1 °F 88% 29.78 in 10.0 mi South 16.1 mph 23.0 mph N/A   Partly Cloudy
5:53 AM 82.0 °F 91.0 °F 78.1 °F 88% 29.79 in 10.0 mi South 15.0 mph 21.9 mph N/A   Unknown
6:53 AM 82.4 °F 92.4 °F 78.8 °F 89% 29.81 in 10.0 mi South 13.8 mph - N/A   Partly Cloudy
7:53 AM 82.9 °F 91.8 °F 77.0 °F 82% 29.82 in 10.0 mi South 13.8 mph - N/A   Partly Cloudy
8:53 AM 84.0 °F 92.6 °F 75.9 °F 76% 29.86 in 10.0 mi South 15.0 mph 23.0 mph N/A   Partly Cloudy
9:53 AM 84.9 °F 95.3 °F 77.0 °F 77% 29.87 in 10.0 mi South 13.8 mph - N/A   Partly Cloudy
10:53 AM 87.1 °F 98.8 °F 77.0 °F 72% 29.88 in 10.0 mi South 11.5 mph 20.7 mph N/A   Mostly Cloudy
11:13 AM 86.0 °F 96.9 °F 77.0 °F 74% 29.88 in 10.0 mi South 12.7 mph - N/A   Scattered Clouds
11:23 AM 87.8 °F 99.7 °F 77.0 °F 70% 29.88 in 10.0 mi South 15.0 mph - N/A   Mostly Cloudy
11:38 AM 87.8 °F 97.6 °F 75.2 °F 66% 29.88 in 10.0 mi South 15.0 mph - N/A   Scattered Clouds
11:53 AM 87.1 °F 97.3 °F 75.9 °F 69% 29.88 in 10.0 mi SSW 13.8 mph - N/A   Clear
12:53 PM 88.0 °F 98.5 °F 75.9 °F 67% 29.86 in 10.0 mi South 13.8 mph 21.9 mph N/A   Clear
1:53 PM 89.6 °F 99.8 °F 75.2 °F 62% 29.85 in 10.0 mi South 15.0 mph 20.7 mph N/A   Clear
2:53 PM 88.0 °F 100.2 °F 77.0 °F 70% 29.83 in 10.0 mi South 12.7 mph - N/A   Clear
3:53 PM 89.1 °F 101.4 °F 77.0 °F 67% 29.81 in 10.0 mi South 11.5 mph - N/A   Clear
4:53 PM 88.0 °F 98.5 °F 75.9 °F 67% 29.80 in 10.0 mi South 13.8 mph - N/A   Clear
5:53 PM 87.1 °F 98.8 °F 77.0 °F 72% 29.80 in 10.0 mi South 10.4 mph - N/A   Clear
6:53 PM 84.9 °F 95.3 °F 77.0 °F 77% 29.81 in 10.0 mi SSE 10.4 mph - N/A   Partly Cloudy
7:53 PM 82.9 °F 91.8 °F 77.0 °F 82% 29.81 in 10.0 mi SSE 8.1 mph - N/A   Clear
8:53 PM 82.0 °F 90.2 °F 77.0 °F 85% 29.82 in 10.0 mi SSE 8.1 mph - N/A   Clear
9:53 PM 81.0 °F 87.9 °F 77.0 °F 88% 29.84 in 10.0 mi SSE 8.1 mph - N/A   Clear
10:53 PM 81.0 °F 87.9 °F 77.0 °F 88% 29.86 in 10.0 mi SSE 9.2 mph - N/A   Clear
11:53 PM 81.0 °F 87.9 °F 77.0 °F 88% 29.87 in 10.0 mi SSE 8.1 mph - N/A   Clear